Location: Unspecified
(0.0000°N, 0.0000°E)
Time: 07:17:35
(UTC+00:00)

MOZHAYETS 4 - Pass Details

Date: 03 August 2024
Orbit: 650 x 668 km, 98.3° (Epoch: 16 September)

Event Time Altitude Azimuth Distance (km) Brightness Sun altitude
Exits shadow 04:03:23 13° 352° (N) 1,882 10.1 -29.2°
Drops below altitude 10° 04:03:52 10° 351° (N) 2,073 10.3 -29.1°
Sets 04:06:05 0° 350° (N) 2,985 11.2 -28.5°
